Location: Oriwa
(40.7500°S, 175.3333°E)
Time: 12:28:06
(UTC+00:00)

Cosmos 2285 Rocket - Pass Details

Date: 03 February 2023
Orbit: 971 x 998 km, 74.0° (Epoch: 30 March)

Event Time Altitude Azimuth Distance (km) Brightness Sun altitude
Exits shadow 12:09:21 68° 215° (SW) 1,059 4.2 -32.5°
Drops below altitude 10° 12:15:16 10° 165° (SSE) 2,767 7.1 -32.6°
Sets 12:17:52 0° 162° (SSE) 3,726 8.0 -32.6°
